When you browse on this site, cookies collect data to enhance your experience and personalize the content and advertising you see.
Visit our Privacy Policy to learn more. By continuing to use the site, you agree to this use of cookies and data.
  • En España
  • Lista de países
  • Para 7 días
  • Temperatura del agua
  • Mapa Satelital
  • El tiempo en el mapa
  • Informadores
  • user-avatar
    Iniciar sesión

    Tiempo cada hora Vlore

    Hoy, 22 Mayo, Miércoles

    Tiempo Temperatura Precipitaciones Viento Presión Humedad
    00:00 +16°C° 0 mm 3 mps 762 mmHg 88%
    01:00 +16°C° 0 mm 3 mps 762 mmHg 87%
    02:00 +16°C° 0 mm 3 mps 762 mmHg 86%
    03:00 +16°C° 0 mm 2 mps 762 mmHg 86%
    04:00 +15°C° 0 mm 2 mps 761 mmHg 85%
    05:00 +17°C° 0 mm 2 mps 762 mmHg 80%
    06:00 +18°C° 0 mm 2 mps 762 mmHg 76%
    07:00 +19°C° 0 mm 2 mps 762 mmHg 72%
    08:00 +20°C° 0 mm 2 mps 762 mmHg 70%
    09:00 +21°C° 0 mm 2 mps 762 mmHg 69%
    10:00 +23°C° 0 mm 2 mps 762 mmHg 68%
    11:00 +23°C° 0 mm 2 mps 762 mmHg 68%
    12:00 +23°C° 0 mm 2 mps 762 mmHg 69%
    13:00 +24°C° 0 mm 2 mps 762 mmHg 69%
    14:00 +24°C° 0 mm 2 mps 762 mmHg 69%
    15:00 +23°C° 0 mm 2 mps 761 mmHg 69%
    16:00 +23°C° 0 mm 1 mps 761 mmHg 69%
    17:00 +22°C° 0 mm 1 mps 761 mmHg 74%
    18:00 +21°C° 0 mm 1 mps 761 mmHg 79%
    19:00 +19°C° 0 mm 1 mps 761 mmHg 84%
    20:00 +19°C° 0 mm 1 mps 761 mmHg 86%
    21:00 +19°C° 0 mm 1 mps 761 mmHg 88%
    22:00 +18°C° 0 mm 1 mps 762 mmHg 89%
    23:00 +18°C° 0 mm 1 mps 762 mmHg 89%

    Mañana, 23 Mayo, Jueves

    Tiempo Temperatura Precipitaciones Viento Presión Humedad
    00:00 +18°C° 0 mm 1 mps 761 mmHg 88%
    01:00 +16°C° 0 mm 1 mps 761 mmHg 88%
    02:00 +16°C° 0 mm 1 mps 761 mmHg 85%
    03:00 +17°C° 0 mm 2 mps 761 mmHg 83%
    04:00 +17°C° 0 mm 2 mps 761 mmHg 81%
    05:00 +18°C° 0 mm 2 mps 761 mmHg 75%
    06:00 +19°C° 0 mm 2 mps 761 mmHg 70%
    07:00 +20°C° 0 mm 2 mps 761 mmHg 64%
    08:00 +21°C° 0 mm 3 mps 761 mmHg 62%
    09:00 +22°C° 0 mm 3 mps 761 mmHg 60%
    10:00 +25°C° 0 mm 3 mps 761 mmHg 57%
    11:00 +25°C° 0 mm 4 mps 761 mmHg 58%
    12:00 +25°C° 0 mm 5 mps 760 mmHg 59%
    13:00 +26°C° 0 mm 5 mps 760 mmHg 60%
    14:00 +25°C° 0 mm 5 mps 760 mmHg 63%
    15:00 +23°C° 0 mm 5 mps 759 mmHg 67%
    16:00 +22°C° 0 mm 5 mps 759 mmHg 71%
    17:00 +21°C° 0 mm 5 mps 759 mmHg 76%
    18:00 +20°C° 0 mm 5 mps 759 mmHg 81%
    19:00 +19°C° 0 mm 5 mps 759 mmHg 86%
    20:00 +18°C° 0 mm 4 mps 760 mmHg 84%
    21:00 +18°C° 0 mm 4 mps 760 mmHg 82%
    22:00 +18°C° 0 mm 4 mps 760 mmHg 80%
    23:00 +17°C° 0 mm 4 mps 760 mmHg 79%

    Pasado mañana, 24 Mayo, Viernes

    Tiempo Temperatura Precipitaciones Viento Presión Humedad
    00:00 +17°C° 0 mm 4 mps 760 mmHg 78%
    01:00 +17°C° 0 mm 3 mps 759 mmHg 77%
    02:00 +15°C° 0 mm 4 mps 759 mmHg 78%
    03:00 +15°C° 0 mm 4 mps 759 mmHg 79%
    04:00 +14°C° 0 mm 4 mps 759 mmHg 80%
    05:00 +15°C° 0 mm 5 mps 759 mmHg 80%
    06:00 +16°C° 0 mm 5 mps 759 mmHg 81%
    07:00 +19°C° 0 mm 5 mps 759 mmHg 81%
    08:00 +20°C° 0 mm 5 mps 759 mmHg 77%
    09:00 +21°C° 0 mm 5 mps 759 mmHg 73%
    10:00 +22°C° 0 mm 5 mps 759 mmHg 69%
    11:00 +22°C° 0 mm 6 mps 759 mmHg 71%
    12:00 +23°C° 0 mm 6 mps 759 mmHg 74%
    13:00 +23°C° 0 mm 7 mps 759 mmHg 76%
    14:00 +23°C° 0 mm 7 mps 759 mmHg 78%
    15:00 +22°C° 0 mm 7 mps 759 mmHg 80%
    16:00 +22°C° 0 mm 6 mps 758 mmHg 82%
    17:00 +21°C° 0 mm 6 mps 759 mmHg 86%
    18:00 +20°C° 0 mm 5 mps 759 mmHg 90%
    19:00 +19°C° 0 mm 4 mps 759 mmHg 95%
    20:00 +18°C° 0 mm 3 mps 759 mmHg 94%
    21:00 +18°C° 0 mm 3 mps 760 mmHg 94%
    22:00 +17°C° 0 mm 2 mps 760 mmHg 93%
    23:00 +17°C° 0 mm 2 mps 760 mmHg 92%

    25 Mayo, Sábado

    Tiempo Temperatura Precipitaciones Viento Presión Humedad
    00:00 +17°C° 0 mm 2 mps 760 mmHg 91%
    01:00 +16°C° 0 mm 2 mps 760 mmHg 90%
    02:00 +16°C° 0 mm 2 mps 760 mmHg 89%
    03:00 +16°C° 0 mm 2 mps 760 mmHg 88%
    04:00 +16°C° 0 mm 1 mps 760 mmHg 88%
    05:00 +18°C° 0 mm 1 mps 761 mmHg 81%
    06:00 +20°C° 0 mm 1 mps 761 mmHg 75%
    07:00 +21°C° 0 mm 1 mps 761 mmHg 69%
    08:00 +22°C° 0 mm 1 mps 761 mmHg 66%
    09:00 +23°C° 0 mm 1 mps 761 mmHg 63%
    10:00 +24°C° 0 mm 1 mps 762 mmHg 59%
    11:00 +25°C° 0 mm 1 mps 761 mmHg 60%
    12:00 +25°C° 0 mm 2 mps 761 mmHg 61%
    13:00 +25°C° 0 mm 2 mps 761 mmHg 61%
    14:00 +25°C° 0 mm 2 mps 761 mmHg 62%
    15:00 +25°C° 0 mm 2 mps 761 mmHg 63%
    16:00 +24°C° 0 mm 2 mps 761 mmHg 64%
    17:00 +23°C° 0 mm 2 mps 761 mmHg 69%
    18:00 +21°C° 0 mm 1 mps 761 mmHg 74%
    19:00 +20°C° 0 mm 1 mps 761 mmHg 79%
    20:00 +20°C° 0 mm 1 mps 762 mmHg 79%
    21:00 +19°C° 0 mm 1 mps 762 mmHg 79%
    22:00 +19°C° 0 mm 1 mps 762 mmHg 80%
    23:00 +18°C° 0 mm 2 mps 762 mmHg 80%

    26 Mayo, Domingo

    Tiempo Temperatura Precipitaciones Viento Presión Humedad
    00:00 +18°C° 0 mm 2 mps 762 mmHg 81%
    01:00 +18°C° 0 mm 2 mps 762 mmHg 81%
    02:00 +18°C° 0 mm 2 mps 762 mmHg 81%
    03:00 +17°C° 0 mm 2 mps 762 mmHg 81%
    04:00 +17°C° 0 mm 2 mps 761 mmHg 81%
    05:00 +20°C° 0 mm 1 mps 761 mmHg 75%
    06:00 +21°C° 0 mm 1 mps 762 mmHg 70%
    07:00 +23°C° 0 mm 1 mps 762 mmHg 64%
    08:00 +23°C° 0 mm 1 mps 762 mmHg 62%
    09:00 +24°C° 0 mm 2 mps 762 mmHg 59%
    10:00 +25°C° 0 mm 3 mps 762 mmHg 57%
    11:00 +26°C° 0 mm 2 mps 762 mmHg 57%
    12:00 +26°C° 0 mm 2 mps 762 mmHg 58%
    13:00 +26°C° 0 mm 2 mps 762 mmHg 59%
    14:00 +26°C° 0 mm 2 mps 761 mmHg 61%
    15:00 +26°C° 0 mm 2 mps 761 mmHg 62%
    16:00 +26°C° 0 mm 1 mps 761 mmHg 64%
    17:00 +24°C° 0 mm 1 mps 761 mmHg 69%
    18:00 +23°C° 0 mm 1 mps 761 mmHg 74%
    19:00 +22°C° 0 mm 1 mps 761 mmHg 78%
    20:00 +22°C° 0 mm 1 mps 761 mmHg 80%
    21:00 +21°C° 0 mm 1 mps 761 mmHg 81%
    22:00 +20°C° 0 mm 2 mps 761 mmHg 82%
    23:00 +20°C° 0 mm 2 mps 761 mmHg 83%

    27 Mayo, Lunes

    Tiempo Temperatura Precipitaciones Viento Presión Humedad
    00:00 +20°C° 0 mm 2 mps 761 mmHg 83%
    01:00 +19°C° 0 mm 2 mps 761 mmHg 83%
    02:00 +19°C° 0 mm 2 mps 761 mmHg 81%
    03:00 +19°C° 0 mm 2 mps 761 mmHg 79%
    04:00 +20°C° 0 mm 2 mps 761 mmHg 76%
    05:00 +21°C° 0 mm 2 mps 761 mmHg 72%
    06:00 +23°C° 0 mm 2 mps 761 mmHg 68%
    07:00 +25°C° 0 mm 1 mps 761 mmHg 64%
    08:00 +26°C° 0 mm 1 mps 761 mmHg 59%
    09:00 +28°C° 0 mm 1 mps 761 mmHg 55%
    10:00 +29°C° 0 mm 1 mps 761 mmHg 51%
    11:00 +30°C° 0 mm 2 mps 760 mmHg 51%
    12:00 +30°C° 0 mm 2 mps 760 mmHg 51%
    13:00 +31°C° 0 mm 2 mps 760 mmHg 51%
    14:00 +30°C° 0 mm 2 mps 759 mmHg 54%
    15:00 +30°C° 0 mm 2 mps 759 mmHg 57%
    16:00 +29°C° 0 mm 1 mps 759 mmHg 60%
    17:00 +28°C° 0 mm 1 mps 759 mmHg 65%
    18:00 +26°C° 0 mm 1 mps 759 mmHg 71%
    19:00 +25°C° 0 mm 1 mps 759 mmHg 76%
    20:00 +25°C° 0 mm 2 mps 760 mmHg 75%
    21:00 +24°C° 0 mm 3 mps 760 mmHg 74%
    22:00 +23°C° 0 mm 5 mps 760 mmHg 73%
    23:00 +23°C° 0 mm 5 mps 759 mmHg 71%
    Mostrar más